Dewpoint
54 54 55 55 56 56 56 56 56 56 57 57 58 59 59 59 57 49 33 36 46 56 56 25 25 30 28 28 29 32 32 32 34 38 39 38 38 26 23 19 21 33 35 42 46
53 54 55 55 55 56 56 56 57 57 58 58 59 59 59 58 48 37 46 59 58 59 27 24 26 29 27 30 30 33 34 35 36 37 37 39 38 31 30 24 20 25 32 39 42
53 54 55 55 55 56 56 57 57 57 58 59 58 58 58 56 44 38 62 60 56 52 29 25 27 31 27 28 32 28 33 35 36 36 38 38 35 27 30 27 22 21 23 24 22
54 55 55 55 55 56 56 57 57 57 58 58 58 58 58 47 33 29 60 59 57 40 29 25 29 27 26 27 30 26 28 31 34 34 37 35 27 18 25 32 24 20 21 20 21
54 55 55 55 55 56 56 57 57 57 57 57 57 57 50 43 39 42 60 56 39 32 28 27 29 27 25 25 28 27 25 26 26 25 29 26 21 19 17 28 25 18 24 21 23
55 55 55 55 56 56 57 57 57 57 57 57 57 55 47 38 28 35 43 33 30 28 26 25 26 28 26 24 24 23 23 22 22 22 21 22 18 21 18 21 19 20 23 21 25
55 55 55 55 56 56 57 57 56 57 57 57 57 48 44 41 28 29 31 30 30 30 28 25 24 23 22 21 22 20 19 18 17 18 18 20 17 18 18 17 17 24 21 22 22
55 55 55 55 56 56 57 57 56 57 57 57 57 48 43 34 23 24 23 22 21 20 22 22 21 19 20 20 19 18 18 19 17 17 18 17 14 17 17 18 20 20 23 22 23
55 55 55 55 56 56 56 55 56 57 57 56 51 46 37 35 21 21 21 21 20 19 23 19 20 20 19 17 19 20 16 16 17 18 17 14 14 16 19 19 20 21 24 25 26
54 54 55 55 56 56 55 55 56 54 53 44 42 39 38 19 20 24 25 22 21 20 21 23 17 15 15 15 15 17 18 17 17 15 14 13 16 18 22 22 24 24 25 28 44
53 54 54 55 55 55 49 42 40 41 38 36 33 32 18 15 17 20 22 20 19 21 20 20 14 13 14 15 14 16 16 15 19 18 16 18 22 20 20 23 24 24 23 40 44
53 53 54 54 55 54 50 37 36 31 28 34 32 16 15 14 16 17 21 19 21 19 21 20 17 16 16 16 19 18 14 13 16 20 19 19 18 22 22 21 22 26 29 41 47
52 52 53 54 54 51 39 38 36 31 32 29 14 15 12 13 18 19 20 20 21 20 21 19 19 20 17 15 16 14 18 21 21 23 21 19 19 19 22 22 28 29 36 45 48
51 52 53 53 48 39 34 35 29 36 33 25 14 14 13 16 20 22 20 20 21 18 17 19 18 16 17 14 18 18 21 22 23 23 18 19 14 16 20 27 28 32 32 43 46
50 52 52 52 47 35 32 27 32 38 31 18 15 14 15 14 19 22 25 25 24 20 15 19 18 19 18 22 23 24 20 18 19 17 16 15 17 17 26 26 32 32 35 38 42
50 51 51 50 49 40 36 31 35 32 33 15 13 12 13 15 16 20 23 25 26 24 20 17 18 18 18 17 22 22 20 20 20 18 17 17 20 17 23 29 32 33 35 37 44
49 50 49 45 42 39 36 33 31 28 35 15 14 14 14 17 18 20 21 27 25 23 25 24 17 19 19 16 20 24 19 16 16 17 19 9 13 23 25 32 37 37 38 39 41
48 48 50 42 42 42 44 39 31 33 28 19 18 16 22 19 21 19 21 26 26 26 27 27 22 23 18 15 17 14 16 23 22 20 15 10 21 25 30 32 35 35 35 39 41
48 51 46 43 43 43 43 38 35 35 21 18 17 15 20 19 25 23 25 25 25 28 26 29 27 22 20 19 16 16 20 20 17 14 16 16 26 28 30 30 30 30 31 34 36
45 47 45 45 46 48 43 38 38 26 25 24 22 24 22 21 21 21 29 29 28 28 29 29 26 25 22 25 21 14 23 21 25 19 19 20 21 24 25 30 27 28 28 30 30
49 47 43 40 48 46 39 37 28 24 31 29 27 26 26 25 21 18 28 31 29 30 28 35 32 31 30 25 26 25 24 23 27 26 23 22 22 27 26 27 26 28 30 32 33
45 43 42 41 37 40 36 36 32 25 30 28 31 29 29 30 26 27 33 35 34 32 35 37 32 28 23 26 29 24 26 26 30 27 29 28 27 28 23 29 31 34 34 35 35
41 41 41 41 32 36 40 28 28 28 31 30 33 32 30 29 29 30 34 35 33 38 36 33 31 28 29 30 32 29 27 24 26 32 27 25 26 25 33 35 35 35 35 35 35
43 40 41 40 38 39 39 33 28 30 28 29 29 32 30 31 33 32 33 36 34 35 43 36 26 25 26 27 28 24 21 20 21 28 24 21 19 34 35 35 36 36 35 34 35
46 40 41 38 35 36 36 33 29 32 30 30 33 31 34 30 32 28 32 35 34 42 36 36 33 33 31 30 28 26 23 20 21 21 23 21 31 34 35 36 37 36 34 34 35
38 38 40 38 38 34 34 35 31 32 31 34 34 34 32 34 36 35 35 36 37 36 35 39 32 34 32 32 29 26 24 23 21 25 26 27 31 37 37 37 36 34 34 35 35
41 40 42 41 37 34 32 32 33 34 34 31 32 33 38 37 37 35 35 32 33 32 32 32 33 32 31 33 30 26 26 26 24 30 31 33 36 36 36 36 35 35 36 36 35
Lifted_Index
15 14 14 14 13 13 13 13 13 13 12 12 11 11 11 11 11 10 10 9 9 8 7 6 5 4 3 2 1 1 1 1 1 1 1 1 1 1 1 1 1 0 -1 -2 -3
15 14 14 14 13 13 13 13 12 12 12 11 11 11 11 11 10 9 8 8 8 8 7 5 4 4 3 1 1 1 1 1 1 1 1 1 1 1 1 1 1 2 1 0 -0
15 14 14 13 13 13 12 12 12 12 11 11 11 11 11 10 8 7 6 7 7 7 6 5 3 3 3 2 1 1 1 0 0 1 1 1 1 1 1 1 2 3 3 3 3
14 14 14 13 13 13 12 12 12 11 11 11 11 11 10 8 6 6 6 6 7 7 6 4 3 3 2 2 1 1 1 0 0 1 1 1 1 1 1 1 2 3 4 5 5
14 14 14 13 13 13 12 12 11 11 11 11 11 10 9 7 6 6 7 7 7 7 6 4 2 2 2 2 1 0 0 1 1 1 2 2 2 1 2 2 2 3 4 5 5
14 14 13 13 12 12 12 11 11 11 11 11 11 10 7 6 6 7 7 6 6 6 5 3 2 2 2 1 1 0 0 1 2 2 2 2 2 2 2 3 3 3 4 5 5
13 13 13 12 11 11 11 11 11 11 11 11 10 9 6 6 6 6 6 6 5 5 4 3 2 2 2 2 1 1 1 1 2 2 2 2 2 2 3 3 3 3 4 4 5
12 12 11 11 10 10 11 11 11 11 11 10 9 7 6 6 6 6 6 5 5 5 5 4 4 3 3 2 2 2 1 1 2 2 2 3 2 3 3 3 3 4 4 4 5
11 11 10 10 10 10 10 10 10 10 10 10 8 6 6 6 7 6 6 6 6 6 5 5 5 4 3 2 2 2 1 1 1 1 2 2 3 3 3 4 4 4 5 5 5
11 10 10 10 10 10 10 9 9 9 9 8 7 6 6 7 7 7 6 6 6 5 5 5 4 3 3 2 1 1 1 1 1 1 1 2 3 3 3 4 4 5 5 5 4
11 11 10 10 10 10 9 8 7 7 7 7 6 6 7 7 7 6 6 6 5 5 5 4 3 2 2 1 1 1 0 0 0 0 1 1 2 3 3 3 3 4 4 4 3
11 11 10 10 10 9 8 7 7 7 6 6 6 7 7 7 6 6 6 5 5 4 4 3 2 2 2 1 1 1 0 0 0 1 1 2 2 3 3 3 3 3 3 2 2
11 10 10 10 9 8 7 7 7 7 6 6 6 7 6 6 6 6 5 5 4 3 3 2 2 2 1 1 1 1 1 1 1 1 1 2 2 2 2 2 3 2 1 1 1
10 10 10 9 8 7 6 7 7 6 5 5 6 6 6 6 5 5 5 5 4 3 3 2 1 1 2 1 1 1 2 2 2 2 2 2 2 2 1 2 2 1 1 0 0
11 10 9 9 7 6 6 6 6 5 4 5 6 6 6 5 5 5 4 4 4 4 3 2 2 2 2 2 2 2 3 3 3 2 2 2 1 1 1 1 1 0 -0 -0 -0
11 10 9 8 7 6 6 6 5 3 2 3 5 5 5 5 5 4 4 4 3 3 3 3 3 3 3 3 3 3 3 3 2 2 1 1 1 1 0 0 -0 -1 -1 -1 -1
11 10 9 7 6 5 5 4 3 1 0 2 3 4 4 3 4 4 4 3 3 3 2 2 2 3 3 3 3 3 3 2 1 1 0 0 0 0 0 -0 -0 -0 -0 -1 -1
11 9 8 6 5 4 4 3 1 0 1 2 3 3 2 2 2 3 3 3 3 3 2 1 1 2 3 3 3 3 3 2 1 0 0 -0 -0 0 0 0 0 0 0 -0 -0
9 7 5 4 4 3 2 1 0 1 2 2 2 2 1 1 2 2 3 3 3 3 2 1 1 2 3 3 3 2 3 2 2 1 0 0 0 1 1 1 1 1 1 1 1
8 6 3 3 3 2 2 1 1 2 3 3 2 2 1 2 2 2 2 2 3 3 3 2 2 2 2 2 2 2 2 2 2 1 1 1 1 1 1 1 1 1 2 2 3
6 4 3 3 3 2 1 1 1 3 3 3 3 2 2 2 3 2 2 2 3 3 3 2 2 2 2 2 2 2 2 2 2 2 1 1 1 1 1 2 2 2 3 3 3
6 4 3 3 3 2 1 1 2 3 3 3 3 3 3 3 3 2 2 2 2 3 3 3 2 2 2 2 2 2 2 2 2 2 1 1 1 1 2 2 3 3 3 3 3
5 4 3 3 3 2 1 2 2 3 3 3 3 3 3 3 2 2 2 2 2 3 3 3 3 2 2 2 1 1 2 2 2 2 2 2 2 2 2 3 3 3 3 3 3
4 3 3 3 3 2 1 1 2 3 3 3 3 3 3 2 2 2 2 2 3 3 3 3 3 3 2 2 2 2 2 2 2 2 2 2 2 3 3 3 3 3 3 3 3
4 4 3 3 3 2 2 1 2 2 3 3 3 3 3 2 2 2 2 2 3 3 3 3 3 3 2 2 2 2 2 2 2 3 3 3 3 3 4 4 3 3 3 4 4
5 5 4 3 2 2 1 1 2 2 3 3 2 2 3 2 2 2 2 2 2 3 2 2 2 2 2 2 2 2 2 2 3 3 3 3 3 3 4 3 3 4 4 5 5
6 6 4 2 1 1 1 1 2 2 2 3 2 2 2 2 2 2 2 2 2 2 2 2 3 2 2 2 2 2 2 2 3 3 3 3 3 3 4 4 4 5 5 6 6